Regional Weather Roundup
Issued by NWS

Home | Current Version | Previous Version | Graphics & Text | Print | Product List | Glossary On
Versions: 1 2 3 4 5 6 7 8 9 10 11 12 13 14 15 16 17 18 19 20 21 22 23 24 25 26 27 28 29 30 31 32 33 34 35 36 37 38 39 40 41 42 43 44 45 46 47 48 49 50
000
ASUS45 KBOU 230207
RWRCO

WEATHER ROUNDUP FOR COLORADO
NATIONAL WEATHER SERVICE DENVER/BOULDER CO
800 PM MDT FRI AUG 22 2014

NOTE: "FAIR" INDICATES FEW OR NO CLOUDS BELOW 12000 FEET WITH NO
SIGNIFICANT WEATHER AND/OR OBSTRUCTIONS TO VISIBILITY.

COZ001>005-013-030-031-230300-
...NORTHWEST COLORADO...

CITY           SKY/WX    TMP DP  RH WIND       PRES   REMARKS
CRAIG          LGT RAIN  57  54  89 E8        30.07F FOG
HAYDEN         CLOUDY    59  48  67 NW13      30.10R
MEEKER         MOCLDY    62  54  74 E3        30.07F
MOUNT WERNER   NOT AVBL
STEAMBOAT SPGS CLOUDY    62  50  65 CALM      30.09S
WALDEN         CLOUDY    57  43  58 S6        30.17R
$$

COZ006>008-011-230300-
...WEST CENTRAL VALLEYS...

CITY           SKY/WX    TMP DP  RH WIND       PRES   REMARKS
GRAND JUNCTION MOCLDY    64  56  75 SE10      30.00F
MONTROSE       CLOUDY    63  56  78 SE8       30.11F
EAGLE          CLOUDY    68  52  56 CALM      30.09S
RIFLE          CLOUDY    66  51  58 W18       30.04R
DELTA          RAIN      70  49  47 N7        30.07F
NUCLA          CLOUDY    61  50  67 NE5       30.14S
$$

COZ017>023-064>068-230300-
...SOUTHWEST COLORADO...

CITY           SKY/WX    TMP DP  RH WIND       PRES   REMARKS
DURANGO        MOCLDY    55  51  86 SE3       30.21S
CORTEZ         MOCLDY    60  53  77 NE3       30.14S
PAGOSA SPRINGS DRIZZLE   56  46  70 SW6       30.28R
TELLURIDE      CLOUDY    48  45  87 E3        30.31F
WOLF CREEK PAS NOT AVBL
$$

COZ009-010-012-014-032>034-037-058>063-230300-
...CENTRAL COLORADO...

CITY           SKY/WX    TMP DP  RH WIND       PRES   REMARKS
ASPEN          CLOUDY    62  47  57 CALM      30.17R
BUENA VISTA    MOCLDY    54  46  74 SE6       30.21R
COPPER MTN     MOCLDY    46  37  71 S14       30.44R
BERTHOUD PASS  MOCLDY    39  37  93 MISG      30.47S FOG
COTTONWOOD PAS MOCLDY    50  45  81 CALM      30.31S
GUNNISON       CLOUDY    54  45  71 N7G20     30.23R
KREMMLING      CLOUDY    61  46  59 CALM      30.14R
LEADVILLE      MOCLDY    47  43  86 CALM      30.30R
MONARCH PASS   FOG       41  39  93 SW17      30.54S VSB<1/4
SALIDA         MOCLDY    58  50  74 S5        30.27R
SUNLIGHT       MOCLDY    48  43  81 CALM      30.37R
WILKERSON PASS NOT AVBL
$$

COZ069>075-230300-
...SAN LUIS VALLEY/SANGRE DE CRISTO MOUNTAINS...

CITY           SKY/WX    TMP DP  RH WIND       PRES   REMARKS
ALAMOSA        MOCLDY    54  50  86 CALM      30.23F
LA VETA PASS   NOT AVBL
SAGUACHE       MOCLDY    52  50  93 E5        30.26R
$$

COZ035-036-038>040-230300-
...NORTHERN COLORADO FRONT RANGE...

CITY           SKY/WX    TMP DP  RH WIND       PRES   REMARKS
DENVER INTL AP CLOUDY    61  57  87 E17       30.04F
DMNS CITY PARK   N/A     63  57  79 E5        30.06R
AURORA         MOCLDY    60  59  96 SE10      30.07R
FRONT RANGE AP CLOUDY    61  59  94 E17G23    30.05S
ERIE MUNI ARPT CLOUDY    65  58  78 E7        30.04S
BOULDER MUN AP CLOUDY    64  59  82 NE3       30.04S
CENTENNIAL     CLOUDY    60  56  86 SE12      30.06R
BROOMFIELD     MOCLDY    64  59  82 NE6       30.07S
FORT COLLINS   CLOUDY    63  55  77 E10       30.07R
LONGMONT       CLOUDY    66  58  75 E7        30.06S
$$

COZ041-046-047-076>085-087-088-230300-
...PIKES PEAK/PALMER DIVIDE AND SOUTHERN FOOTHILLS...

CITY           SKY/WX    TMP DP  RH WIND       PRES   REMARKS
COLO. SPRINGS  CLOUDY    64  57  78 NE16      30.07R
A. F. ACADEMY  CLOUDY    65  52  63 N13       30.09R
ELLICOTT       CLOUDY    62  57  83 NE15      30.05F
FALCON         CLOUDY    58  56  92 NE13      30.12S
FORT CARSON    CLOUDY    68  50  52 NE2       30.05R
LIMON          CLOUDY    60  58  92 N20       30.04F
MONUMENT HILL  CLOUDY    55  54  94 E7        30.12S
TRINIDAD       PTCLDY    65  57  75 NW7       30.08R
$$

COZ042>045-048>051-090-091-230300-
...NORTHEAST COLORADO...

CITY           SKY/WX    TMP DP  RH WIND       PRES   REMARKS
GREELEY ARPT   CLOUDY    63  54  72 CALM      30.06R
AKRON          LGT RAIN  60  59  96 NW15      30.08R
BURLINGTON     LGT RAIN  66  63  90 W5        30.03R
WRAY           TSTM      67  65  91 NE8       29.99R
STERLING       RAIN      64  63  94 NW8       30.06R
HOLYOKE        NOT AVBL
FORT MORGAN    CLOUDY    61  59  94 E8        30.08R
$$

COZ086-089-092>099-230300-
...SOUTHEAST COLORADO...

CITY           SKY/WX    TMP DP  RH WIND       PRES   REMARKS
PUEBLO         CLOUDY    70  50  49 W5        29.99R
LA JUNTA       CLOUDY    70  63  78 W5        29.98R
LAMAR          CLOUDY    70  62  76 VRB3      29.96R THUNDER
SPRINGFIELD      N/A     70  63  78 W12       30.00R
$$


USA.gov is the U.S. government's official web portal to all federal, state and local government web resources and services.